Regional Weather Roundup
Issued by NWS

Home | Current Version | Previous Version | Text Only | Print | Product List | Glossary Off
Versions: 1 2 3 4 5 6 7 8 9 10 11 12 13 14 15 16 17 18 19 20 21 22 23 24 25 26 27 28 29 30 31 32 33 34 35 36 37 38 39 40 41 42 43 44 45 46 47 48 49 50

000
ASUS43 KMKX 222320
RWRWI

WISCONSIN REGIONAL WEATHER ROUNDUP
NATIONAL WEATHER SERVICE MILWAUKEE/SULLIVAN WI
500 PM CST THU FEB 22 2018

NOTE: "FAIR" INDICATES FEW OR NO CLOUDS BELOW 12,000 FEET WITH NO
SIGNIFICANT WEATHER AND/OR OBSTRUCTIONS TO VISIBILITY.

WIZ001-002-006>008-014>016-023>028-230000-
NORTHWEST WISCONSIN

CITY           SKY/WX    TMP DP  RH WIND       PRES   REMARKS
SUPERIOR ARPT  CLOUDY    22  14  71 NE3       30.49R
ASHLAND        CLOUDY    21  14  74 N3        30.49R
HAYWARD        CLOUDY    30  11  45 CALM      30.44S
SIREN          CLOUDY    29   5  37 SE3       30.44S
CUMBERLAND     CLOUDY    28   9  43 E3        30.42F
RICE LAKE      CLOUDY    29  10  43 E7        30.45F WCI  22
CHETEK         CLOUDY    30  11  45 CALM      30.44F
LADYSMITH      CLOUDY    31   8  38 SE8       30.46F WCI  24
EAU CLAIRE     CLOUDY    29  16  58 E8        30.44F WCI  21
MENOMONIE      CLOUDY    31  14  50 E12       30.42F WCI  21
NEW RICHMOND   CLOUDY    28  11  50 E6        30.41F WCI  21
OSCEOLA        CLOUDY    30   9  42 E9        30.44F WCI  21
$$

WIZ003>005-009-010-017-018-230000-
NORTH CENTRAL WISCONSIN

CITY           SKY/WX    TMP DP  RH WIND       PRES   REMARKS
MANITOWISH WTR CLOUDY    30  11  46 CALM      30.44S
ARBOR VITAE    CLOUDY    32  11  41 S3        30.45R
WOODRUFF       CLOUDY    32  11  41 S3        30.45R
RHINELANDER    CLOUDY    30  12  47 SE6       30.47R WCI  24
EAGLE RIVER    CLOUDY    30   8  40 SE6       30.46R WCI  24
LAND O LAKES   CLOUDY    31   9  40 SE6       30.48R WCI  25
PHILLIPS       CLOUDY    30  12  46 SE7       30.44F WCI  23
TOMAHAWK       CLOUDY    29  10  45 SE3       30.47S
MEDFORD        CLOUDY    28  11  48 E6        30.45F WCI  21
MERRILL        CLOUDY    30  13  50 SE5       30.47F WCI  25
$$

WIZ029-030-035-036-043>047-230000-
CENTRAL WISCONSIN

CITY           SKY/WX    TMP DP  RH WIND       PRES   REMARKS
WAUSAU         CLOUDY    29  14  53 SE12      30.47R WCI  19
MOSINEE        FLURRIES  28  16  59 E8        30.48S WCI  20
MARSHFIELD     CLOUDY    28  16  60 E8        30.45S WCI  20
STEVENS POINT  CLOUDY    27  18  67 E7        30.50S WCI  20
WAUPACA        CLOUDY    32  21  65 NE3       30.50F
WAUTOMA        NOT AVBL
WISC RAPIDS    CLOUDY    30  18  60 E5        30.49F WCI  25
CAMP DOUGLAS   CLOUDY    32  19  59 E9        30.42F WCI  24
$$

WIZ011>013-019>022-031-037>040-048>050-230000-
NORTHEAST WISCONSIN

CITY           SKY/WX    TMP DP  RH WIND       PRES   REMARKS
ANTIGO         CLOUDY    27  16  64 SE7       30.49R WCI  19
SHAWANO        CLOUDY    31  21  66 E6        30.52F WCI  25
OCONTO         CLOUDY    29  20  68 NE6       30.55R WCI  23
STURGEON BAY   CLOUDY    30  24  78 NE7       30.56R WCI  23
GREEN BAY      CLOUDY    30  23  75 NE12      30.53S WCI  20
MANITOWOC      MIX PCPN  31  25  78 NE6       30.53S WCI  25
APPLETON       CLOUDY    30  18  59 NE8       30.49S WCI  23
CLINTONVILLE   CLOUDY    31  18  59 E7        30.51F WCI  24
OSHKOSH        CLOUDY    32  23  69 E8        30.49S WCI  25
$$

WIZ032>034-041-042-053>061-230000-
SOUTHWEST WISCONSIN

CITY           SKY/WX    TMP DP  RH WIND       PRES   REMARKS
LA CROSSE      CLOUDY    33  18  53 VRB3      30.42F
SPARTA         CLOUDY    31  19  59 E7        30.44F WCI  25
VIROQUA        CLOUDY    30  22  70 E14       30.36F WCI  20
BOSCOBEL       CLOUDY    34  23  64 E10G16    30.42S WCI  26
PRAIRIE DU CHI MIX PCPN  32  24  72 E5        30.40R WCI  27
PLATTEVILLE    CLOUDY    33  32  97 E12       30.38F WCI  24
$$

WIZ056-057-062-063-064-067-068-230000-
SOUTH CENTRAL WISCONSIN

CITY           SKY/WX    TMP DP  RH WIND       PRES   REMARKS
REEDSBURG      CLOUDY    32  23  70 NE9       30.41F WCI  24
BARABOO/DELLS  CLOUDY    32  20  61 E13G20    30.41F WCI  22
LONE ROCK      CLOUDY    34  25  69 E13       30.42F WCI  25
MINERAL POINT  LGT RAIN  34  32  93 E16G25    30.37F WCI  23
MADISON        CLOUDY    33  25  72 E14       30.43F WCI  23
MIDDLETON      CLOUDY    35  27  73 E10       30.41F WCI  27
WATERTOWN      CLOUDY    32  27  80 E9        30.44F WCI  25
MONROE         MIX PCPN  32  30  93 NE12      30.39F WCI  23
JANESVILLE     CLOUDY    34  34 100 E13G18    30.42S FOG     WCI  25
$$

WIZ051-052-058>065-066-070>072-230000-
SOUTHEAST WISCONSIN

CITY           SKY/WX    TMP DP  RH WIND       PRES   REMARKS
MILWAUKEE      CLOUDY    35  29  78 NE12      30.46F WCI  27
WAUKESHA       CLOUDY    30  27  86 E10G18    30.47S WCI  21
MILWAUKEE/TIMM CLOUDY    32  27  80 NE7       30.48S WCI  26
RACINE         CLOUDY    36  29  75 NE8       30.48R WCI  30
BURLINGTON     CLOUDY    33  28  83 E12       30.44S WCI  24
KENOSHA        CLOUDY    36  28  73 E13       30.44S WCI  27
FOND DU LAC    CLOUDY    33  21  61 E13       30.48F WCI  24
SHEBOYGAN      MIX PCPN  32  27  81 NE13      30.49F WCI  22
WEST BEND      CLOUDY    32  30  93 NE10      30.47F WCI  24
JUNEAU         CLOUDY    32  24  73 E9        30.46F WCI  24
$$

LSZ147-162-230000-
LAKE SUPERIOR

STATION/POSITION TIME  TEMP    WIND        PRES    WAVE
                       AIR SEA DIR/SP/G            HT/PER
                 (UTC) (F)     (DEG/KT/KT) (MB)    (FT/S)
DEVILS ISLAND    2300   23     110/  4/  5 1033.8S
SAXON HARBOR     2230   23      50/  2/  4 1031.8S
$$

LMZ867-665-643>646-230000-
LAKE MICHIGAN

STATION/POSITION TIME  TEMP    WIND        PRES    WAVE
                       AIR SEA DIR/SP/G            HT/PER
                 (UTC) (F)     (DEG/KT/KT) (MB)    (FT/S)
NORTHPORT PIER   2240   29                 1034.5R
KEWAUNEE LAKESHO 2254   31      60/  5/  9 1033.4R
SHEBOYGAN LAKESH 2300   32      40/ 15/ 15 1033.3F
PORT WASHINGTON  2240   33      40/ 13/ 15 1033.5S
MILWAUKEE LAKESH 2300   33      40/ 10/ 12   N/A
KENOSHA   LAKESH 2300   35      60/  7/  8 1031.2
$$

TC  - TEMPERATURE IN CELSIUS
VSB - VISIBILITY IN STATUTE MILES
WCI - WIND CHILL INDEX
HX  - HEAT INDEX





USA.gov is the U.S. government's official web portal to all federal, state and local government web resources and services.